Regional Weather Roundup
Issued by NWS

Home | Current Version | Previous Version | Graphics & Text | Print | Product List | Glossary On
Versions: 1 2 3 4 5 6 7 8 9 10 11 12 13 14 15 16 17 18 19 20 21 22 23 24 25 26 27 28 29 30 31 32 33 34 35 36 37 38 39 40 41 42 43 44 45 46 47 48 49 50
091
ASUS45 KSLC 021610
RWRUT

UTAH REGIONAL WEATHER ROUNDUP
NATIONAL WEATHER SERVICE SALT LAKE CITY UT
900 AM MST FRI DEC 02 2016

UTZ001>011-023>025-021700-

NORTHERN UTAH

CITY           SKY/WX    TMP DP  RH WIND       PRES   REMARKS
BRIGHAM CITY     N/A     29  21  70 W7        30.24R WCI  22
HILL AFB       SUNNY     24  15  70 E13       30.21R WCI  12
LOGAN          SUNNY     24  19  81 CALM      30.25R
OGDEN          SUNNY     26  17  68 NW10      30.21R WCI  16
SALT LAKE CITY MOSUNNY   29  24  82 NW3       30.22R
TOOELE VALLEY  SUNNY     18  16  93 CALM      30.23R
WENDOVER       SUNNY     28  14  54 E8        30.26R WCI  20
HEBER CITY     CLOUDY    16  12  86 CALM      30.18R
WEST JORDAN    SUNNY     28  24  83 N7        30.21R WCI  21

$$

UTZ011>015-024>027-021700-

CENTRAL/NORTHEAST UTAH

CITY           SKY/WX    TMP DP  RH WIND       PRES   REMARKS
PROVO AIRPORT  MOSUNNY   25  21  86 SE3       30.21R
MOAB/CANYONLAN CLOUDY    31  23  72 NW6       30.07R WCI  25
DELTA          PTSUNNY   27  23  86 N8        30.19R WCI  18
PRICE          CLOUDY    28  14  55 NE14      30.08R WCI  17
ROOSEVELT      CLOUDY    28  21  74 CALM      30.19R
VERNAL         MOSUNNY   28  16  60 E7        30.16R WCI  21

$$

UTZ013>016-019>022-027-021700-

SOUTHERN UTAH

CITY           SKY/WX    TMP DP  RH WIND       PRES   REMARKS
BRYCE CANYON   NOT AVBL
CEDAR CITY     CLOUDY    26  19  74 N14G21    30.09R WCI  14
MILFORD        CLOUDY    28  22  78 N18       30.15R WCI  15
ST GEORGE      MOSUNNY   37  19  48 CALM      30.10R
HANKSVILLE     CLOUDY    32  21  64 CALM      30.12R
BLANDING       PTSUNNY   31  19  60 NE5       30.08R WCI  27

$$

REGIONAL REPORTS     COLORADO/ARIZONA

CITY           SKY/WX    TMP DP  RH WIND       PRES   REMARKS
CRAIG, CO      CLOUDY    15  11  83 CALM      30.15R
GRAND JUNCTION CLOUDY    31  23  72 SW3       30.08R
RIFLE, CO      PTSUNNY   26  20  77 CALM      30.10R
MONTROSE, CO   CLOUDY    23  14  68 S7        30.11R WCI  15
CORTEZ, CO     CLOUDY    27  19  72 CALM      30.00S
COLORADO CITY    N/A     37  21  52 N8        30.05R WCI  31
PAGE, AZ       MOSUNNY   39  14  36 CALM      30.03R
GRAND CANYON   CLOUDY    29  16  58 NE16G23   29.97R WCI  17
KINGMAN, AZ    CLOUDY    39  16  39 N15       29.98R WCI  31
FLAGSTAFF, AZ  MOSUNNY   28  14  55 NE15      29.92R WCI  16

$$

REGIONAL REPORTS    NEVADA/IDAHO/WYOMING

CITY           SKY/WX    TMP DP  RH WIND       PRES   REMARKS
LAS VEGAS, NV  MOSUNNY   47  14  26 NW18G25   30.09R
ELY, NY        SUNNY     19  12  74 N13       30.18R WCI   6
ELKO, NV       SUNNY     17  11  77 CALM      30.28R
POCATELLO, ID  CLOUDY    21  19  92 NW5       30.30R WCI  15
BURLEY, ID     CLOUDY    25  22  88 SW5       30.31R WCI  19
FORT BRIDGER,    N/A     14  14 100 W6        30.17R WCI   5
EVANSTON, WY   FOG       14  10  84 NE5       30.14R VSB<1/4 WCI   6
ROCK SPRINGS,  PTSUNNY   13  11  92 W7        30.15R WCI   3

$$




USA.gov is the U.S. government's official web portal to all federal, state and local government web resources and services.